Tracking 30995 objects as of 5-Jul-2025
HD Live streaming from Space Station
objects crossing your sky now

SAUDISAT 3

Track SAUDISAT 3 now!
10-day predictions
SAUDISAT 3 is classified as:


NORAD ID: 31118
Int'l Code: 2007-012B
Perigee: 655.4 km
Apogee: 674.3 km
Inclination: 98.1 °
Period: 97.9 minutes
Semi major axis: 7035 km
RCS: 0.633 m2 (medium)
Launch date: April 17, 2007
Source: Saudi Arabia (SAUD)
Launch site: TYURATAM MISSILE AND SPACE COMPLEX (TTMTR)
Your satellite tracking list
Your tracking list is empty




NASA's NSSDC Master Catalog

Two Line Element Set (TLE):
1 31118U 07012B   25186.40785981  .00000236  00000-0  46547-4 0  9999
2 31118  98.0998 132.6596 0013445 249.0902 110.8865 14.71063166976763
Source of the keplerian elements: AFSPC